Regional Weather Roundup
Issued by NWS

Home | Current Version | Previous Version | Graphics & Text | Print | Product List | Glossary On
Versions: 1 2 3 4 5 6 7 8 9 10 11 12 13 14 15 16 17 18 19 20 21 22 23 24 25 26 27 28 29 30 31 32 33 34 35 36 37 38 39 40 41 42 43 44 45 46 47 48 49 50
000
ASUS45 KCYS 241510
RWRWY

WYOMING REGIONAL WEATHER ROUNDUP
NATIONAL WEATHER SERVICE CHEYENNE WY
800 AM MST FRI NOV 24 2017

NOTE:  "FAIR" INDICATES FEW OR NO CLOUDS BELOW 12,000 FEET
WITH NO SIGNIFICANT WEATHER AND/OR OBSTRUCTIONS TO VISIBILITY.

WYZ001-241600-
YELLOWSTONE NATIONAL PARK

CITY           SKY/WX    TMP DP  RH WIND       PRES   REMARKS
LK YELLOWSTONE   N/A     33  29  85 VRB6      29.97R WCI  28
W YELLOWSTONE  NOT AVBL

$$
WYZ002>013-054>058-071-098>099-241600-
NORTHERN WYOMING

CITY           SKY/WX    TMP DP  RH WIND       PRES   REMARKS
JACKSON        LGT RAIN  41  37  86 SW7       29.92R
CODY           FAIR      39  35  86 S3        29.87R
GREYBULL       CLOUDY    49  35  58 NW14      29.82R
WORLAND        FAIR      46  38  73 N7        29.84R
SHERIDAN       FAIR      44  40  85 N14       29.82R
BUFFALO        MOCLDY    45  35  68 N18G25    29.83R
GILLETTE       CLOUDY    45  38  76 NW17G26   29.80R
HULETT         PTSUNNY   46  36  66 W8G16     29.79R
NEWCASTLE      DRIZZLE   43  36  75 NW25G36   29.83R

$$
WYZ014>020-022>026-101>103-241600-
CENTRAL WYOMING

CITY           SKY/WX    TMP DP  RH WIND       PRES   REMARKS
BIG PINEY      FAIR      39  27  62 W12       29.96S WCI  32
PINEDALE       FAIR      32  32 100 E5        29.98R WCI  27
DUBOIS         CLOUDY    37  32  81 NW13G23   29.88R WCI  29
LANDER         FAIR      51  28  41 N10G16    29.81F
RIVERTON       FAIR      43  29  57 N12       29.85R
CASPER         FAIR      44  31  60 NE9       29.85R
DOUGLAS        FAIR      47  37  68 N16G31    29.83R

$$
WYZ021-027>030-104>119-241600-
SOUTHERN WYOMING

CITY           SKY/WX    TMP DP  RH WIND       PRES   REMARKS
EVANSTON       FAIR      44  32  62 W16       30.03R
KEMMERER       FAIR      34  30  86 W5        30.03R WCI  30
FORT BRIDGER   FAIR      42  32  66 W10       30.06R
ROCK SPRINGS   FAIR      39  29  67 SW10      30.00R WCI  32
DIXON          FAIR      43  30  60 W8        30.03R
RAWLINS        FAIR      45  30  55 W21       29.95R
SARATOGA       FAIR      46  28  49 CALM      29.98R
LARAMIE        FAIR      46  27  47 SW15G22   29.93R
CHEYENNE       FAIR      53  27  36 W18G25    29.84R
TORRINGTON     FAIR      59  33  37 W23G29    29.75R
PINE BLUFFS    FAIR      45  28  53 MISG      29.83S

$$



USA.gov is the U.S. government's official web portal to all federal, state and local government web resources and services.